Location: Sternwarte_Laufen
(47.9344°N, 12.9346°E)
Time: 02:10:11
(UTC+02:00)

OTV 5 (USA 277) - Visible Passes

Search period start: 25 April 2019 00:00
Search period end: 05 May 2019 00:00
Orbit: 309 x 326 km, 54.5° (Epoch: 21 April)

Date Brightness Start Highest point End Pass type
(mag) Time Alt. Az. Time Alt. Az. Time Alt. Az.
25 Apr ? 21:52:12 10° WSW 21:54:54 63° NNW 21:57:17 13° NE visible
25 Apr ? 23:27:25 10° WNW 23:28:14 15° NW 23:28:14 15° NW visible
26 Apr ? 22:07:12 10° W 22:09:44 34° NNW 22:12:13 10° NE visible
26 Apr ? 23:42:30 10° NW 23:43:08 14° NW 23:43:08 14° NW visible
27 Apr ? 20:47:19 10° WSW 20:50:03 88° SSE 20:52:47 10° ENE visible
27 Apr ? 22:22:21 10° WNW 22:24:39 24° NNW 22:26:46 11° NE visible
27 Apr ? 23:57:25 10° NW 23:57:40 12° NW 23:57:40 12° NW visible
28 Apr ? 21:02:11 10° W 21:04:50 44° NNW 21:07:28 10° NE visible
28 Apr ? 22:37:30 10° NW 22:39:38 20° N 22:41:05 14° NE visible
29 Apr ? 21:17:17 10° WNW 21:19:42 27° NNW 21:22:07 10° NE visible
29 Apr ? 22:52:29 10° NW 22:54:37 20° N 22:55:18 18° NNE visible
30 Apr ? 21:32:26 10° WNW 21:34:39 21° N 21:36:51 10° NE visible
30 Apr ? 23:07:18 10° NW 23:09:25 23° N 23:09:25 23° N visible
01 May ? 21:47:31 10° NW 21:49:38 20° N 21:51:43 10° NE visible
01 May ? 23:21:58 10° NW 23:23:28 24° NNW 23:23:28 24° NNW visible
02 May ? 22:02:24 10° NW 22:04:37 21° N 22:06:38 11° ENE visible
02 May ? 23:36:37 10° NW 23:37:31 18° NW 23:37:31 18° NW visible
03 May ? 22:17:08 10° NW 22:19:33 27° NNE 22:20:40 20° ENE visible
03 May ? 23:51:21 10° WNW 23:51:32 11° WNW 23:51:32 11° WNW visible
04 May ? 22:31:46 10° NW 22:34:25 44° NNE 22:34:41 42° NE visible
